Weather History for Niagara Falls, NY

Change the Weather History Date:

Saturday, March 2, 2013

  Actual Average Record
Temperature  
Mean Temperature 24 °F -  
Max Temperature 26 °F 34 °F 67 °F (1991)
Min Temperature 21 °F 20 °F 3 °F (2003)
Degree Days  
Heating Degree Days 42    
Moisture  
Dew Point 16 °F    
Average Humidity 75    
Maximum Humidity 80    
Minimum Humidity 69    
Precipitation  
Precipitation 0.00 in - - ()
Sea Level Pressure  
Sea Level Pressure 29.97 in    
Wind  
Wind Speed 11 mph (NNW)    
Max Wind Speed 14 mph    
Max Gust Speed -    
Visibility 9 miles    
Events Snow    
Averages and records for this station are not official NWS values.
T = Trace of Precipitation, MM = Missing Value Source: NWS Daily Summary

Daily Weather History Graph

Daily Weather History Graph

Search for Another Location

Airport:

Trip Planner

Search our weather history database for the weather conditions in past years. The results will help you decide how hot, cold, wet, or windy it might be!

Date:

Astronomy

Mar. 02, 2013 Rise Set
Actual Time 6:49 AM EST 6:06 PM EST
Civil Twilight 6:21 AM EST 6:35 PM EST
Nautical Twilight 5:48 AM EST 7:07 PM EST
Astronomical Twilight 5:15 AM EST 7:40 PM EST
Moon 11:54 PM EST (3/2) 9:07 AM EST (3/2)
Length of Visible Light 12h 13m
Length of Day
11h 16m
Waning Gibbous, 74% of the Moon is Illuminated
Mar 2
Waning Gibbous
Mar 4
Last Quarter
Mar 11
New
Mar 19
First Quarter
Mar 27
Full

Hourly Weather History & Observations

Time (EST) Temp. Windchill Dew Point Humidity Pressure Visibility Wind Dir Wind Speed Gust Speed Precip Events Conditions
12:53 AM 23.0 °F 10.6 °F 17.1 °F 78% 30.01 in 10.0 mi NNW 13.8 mph - N/A   Overcast
1:53 AM 23.0 °F 11.1 °F 16.0 °F 74% 30.01 in 10.0 mi NNW 12.7 mph - N/A   Overcast
2:53 AM 23.0 °F 12.4 °F 16.0 °F 74% 30.00 in 10.0 mi NNW 10.4 mph - N/A   Overcast
3:53 AM 21.9 °F 9.8 °F 16.0 °F 78% 29.99 in 10.0 mi NNW 12.7 mph - 0.00 in   Overcast
4:53 AM 21.0 °F 9.9 °F 15.1 °F 78% 30.00 in 6.0 mi NNW 10.4 mph - 0.00 in Snow Light Snow
5:53 AM 21.0 °F 12.4 °F 15.1 °F 78% 30.00 in 10.0 mi North 6.9 mph - 0.00 in   Overcast
6:22 AM 21.2 °F 11.7 °F 15.8 °F 80% 29.94 in 10.0 mi NNW 8.1 mph - 0.00 in   Overcast
6:53 AM 21.0 °F 10.6 °F 15.1 °F 78% 30.01 in 10.0 mi NNW 9.2 mph - 0.00 in   Overcast
7:01 AM 21.2 °F 9.5 °F 15.8 °F 80% 29.95 in 10.0 mi NNW 11.5 mph - N/A   Overcast
7:25 AM 21.2 °F 10.1 °F 15.8 °F 80% 29.95 in 10.0 mi North 10.4 mph - 0.00 in Snow Light Snow
7:53 AM 21.0 °F 12.4 °F 15.1 °F 78% 30.01 in 9.0 mi NNW 6.9 mph - 0.00 in Snow Light Snow
8:11 AM 21.2 °F 11.7 °F 15.8 °F 80% 29.95 in 9.0 mi NNW 8.1 mph - 0.00 in Snow Light Snow
8:53 AM 21.0 °F 9.3 °F 15.1 °F 78% 30.01 in 9.0 mi NW 11.5 mph - 0.00 in Snow Light Snow
9:53 AM 21.0 °F 11.4 °F 15.1 °F 78% 30.01 in 8.0 mi NW 8.1 mph - 0.00 in Snow Light Snow
10:53 AM 21.9 °F 12.5 °F 15.1 °F 75% 30.00 in 10.0 mi NNW 8.1 mph - 0.00 in Snow Light Snow
11:53 AM 23.0 °F 13.9 °F 16.0 °F 74% 30.00 in 10.0 mi WNW 8.1 mph - 0.00 in Snow Light Snow
12:53 PM 23.0 °F 11.7 °F 16.0 °F 74% 29.99 in 10.0 mi WNW 11.5 mph - 0.00 in Snow Light Snow
1:53 PM 24.1 °F 14.4 °F 16.0 °F 71% 29.97 in 9.0 mi NW 9.2 mph - 0.00 in Snow Light Snow
2:53 PM 24.1 °F 12.5 °F 18.0 °F 77% 29.96 in 8.0 mi West 12.7 mph - 0.00 in Snow Light Snow
3:53 PM 25.0 °F 14.2 °F 18.0 °F 75% 29.96 in 10.0 mi NW 11.5 mph - 0.00 in Snow Light Snow
4:53 PM 26.1 °F 15.0 °F 18.0 °F 71% 29.96 in 10.0 mi NW 12.7 mph - 0.00 in Snow Light Snow
5:53 PM 26.1 °F 15.6 °F 18.0 °F 71% 29.96 in 10.0 mi NNW 11.5 mph - 0.00 in Snow Light Snow
6:53 PM 26.1 °F 15.0 °F 17.1 °F 69% 29.97 in 10.0 mi NW 12.7 mph - 0.00 in Snow Light Snow
7:53 PM 26.1 °F 15.6 °F 17.1 °F 69% 29.96 in 10.0 mi NNW 11.5 mph - 0.00 in Snow Light Snow
8:53 PM 25.0 °F 13.6 °F 18.0 °F 75% 29.97 in 10.0 mi NW 12.7 mph - 0.00 in Snow Light Snow
9:53 PM 25.0 °F 16.3 °F 17.1 °F 72% 29.96 in 8.0 mi NNW 8.1 mph - 0.00 in Snow Light Snow
10:53 PM 25.0 °F 14.2 °F 17.1 °F 72% 29.96 in 8.0 mi NNW 11.5 mph - 0.00 in Snow Light Snow
11:30 PM 24.8 °F 14.0 °F 17.6 °F 74% 29.90 in 7.0 mi North 11.5 mph - 0.00 in Snow Light Snow
11:49 PM 24.8 °F 15.3 °F 17.6 °F 74% 29.89 in 10.0 mi NNW 9.2 mph - 0.00 in   Overcast
11:53 PM 24.1 °F 14.4 °F 17.1 °F 75% 29.95 in 10.0 mi North 9.2 mph - 0.00 in   Overcast